Regional Weather Roundup
Issued by NWS Charleston, SC

Current Version | Previous Version | Graphics & Text | Print | Product List | Glossary On
Versions: 1 2 3 4 5 6 7 8 9 10 11 12 13 14 15 16 17 18 19 20 21 22 23 24 25 26 27 28 29 30 31 32 33 34 35 36 37 38 39 40 41 42 43 44 45 46 47 48 49 50
000 ASUS42 KCHS 200524 RWRCHS REGIONAL WEATHER ROUNDUP NATIONAL WEATHER SERVICE CHARLESTON SC 100 AM EDT WED SEP 20 2017 NOTE: "FAIR" INDICATES FEW OR NO CLOUDS BELOW 12,000 FEET WITH NO SIGNIFICANT WEATHER AND/OR OBSTRUCTIONS TO VISIBILITY. NOT ALL STATIONS ARE QUALITY CONTROLLED. USE DATA WITH CAUTION... ESPECIALLY DEWPOINT OBSERVATIONS. SCZ027-030-031-034>040-042>050-200600- ...SOUTHEAST SOUTH CAROLINA... CITY SKY/WX TMP DP RH WIND PRES REMARKS N CHARLESTON CLEAR 74 73 97 S5 29.97S WATERFRONT PRK N/A 77 74 91 VRB2 29.81F JOHNS ISLAND FAIR 73 72 94 CALM 29.97S PINOPOLIS N/A 75 72 88 VRB2 29.89F MONCKS CORNER FAIR 68 68 100 CALM 29.97F SUMMERVILLE FAIR 72 70 94 CALM 29.98S BEAUFORT MCAS CLEAR 75 74 96 SW3 29.97F BEAUFORT ARPT FAIR 75 72 88 CALM 29.97S HILTON HEAD IS CLEAR 77 73 88 CALM 29.98F WALTERBORO CLEAR 72 70 94 CALM 29.99R ALLENDALE NOT AVBL ...SOUTHERN MIDLANDS AND PEE DEE... CITY SKY/WX TMP DP RH WIND PRES REMARKS GEORGETOWN FAIR 66 64 94 CALM 29.98S KINGSTREE FAIR 64 63 94 CALM 29.97S FOG ORANGEBURG CLEAR 70 68 93 CALM 29.98R BARNWELL FAIR 72 70 94 CALM 29.99R AIKEN FAIR 66 64 94 CALM 30.03R MANNING FAIR 68 61 77 CALM 29.97S COLUMBIA CLEAR 71 66 84 W3 29.98R SUMTER CLEAR 71 65 80 CALM 29.95S FLORENCE CLEAR 69 68 96 CALM 29.97S MYRTLE BEACH CLEAR 70 68 93 W3 29.97F N MYRTLE BEACH CLEAR 70 68 93 CALM 29.95F $$ GAZ063-065-086>088-099>101-113>116-118-119-134>141-150-200600- ...SOUTHEAST GEORGIA... CITY SKY/WX TMP DP RH WIND PRES REMARKS SAVANNAH ARPT CLEAR 75 72 90 S5 29.98F HUNTER AAF CLEAR 76 72 86 S6 29.96S FORT STEWART CLEAR 74 69 85 S3 29.96S STATESBORO CLEAR 74 68 80 CALM 29.98R SYLVANIA CLEAR 74 73 95 CALM 30.00R CLAXTON FAIR 75 72 89 CALM 29.98S ...CSRA...CENTRAL AND FAR SOUTHEAST GEORGIA... CITY SKY/WX TMP DP RH WIND PRES REMARKS THOMSON PTCLDY 69 68 95 CALM 30.03S AUGUSTA-BUSH PTCLDY 71 70 96 CALM 29.97R VSB 1/2 AUGUSTA-DANIEL PTCLDY 78 69 73 S3 29.99R SWAINSBORO FAIR 75 70 83 SE7 29.99S VIDALIA MOCLDY 75 72 88 CALM 29.98F EASTMAN FAIR 73 73 99 CALM 29.99F HAZLEHURST FAIR 77 64 64 S5 29.97S ALMA CLEAR 76 70 82 S7 29.98S WAYCROSS PTCLDY 75 71 86 SW7 29.99S JESUP NOT AVBL BAXLEY FAIR 72 72 100 S3 29.98S BRUNSWICK CLEAR 77 70 78 S6 29.99S SAINT SIMONS CLEAR 80 73 79 S7 29.97F $$ SCZ027-028-034-036>038-045-046-048>050-GAZ119-141-200600- ...LAKE AND SUPPLEMENTAL COASTAL OBSERVATIONS... STATION/POSITION TIME TEMP WIND PRES WAVE SWELL AIR SEA DIR/SP/G HT/PER HT/PER/DIR (UTC) (F) (DEG/KT/KT) (MB) (FT/S) (FT/S/D) WINYAH BAY 0345 72 280/ 1 1015.0 LAKE MURRAY 0420 76 CALM 1013.9 ACE BASIN NERRS 0345 74 CALM 1015.0 FORT PULASKI 0442 78 80 200/ 3/ 5 1015.4F SAPELO ISLAND 0400 79 CALM 1015.0 $$ ANZ835-935-AMZ111-154-330-350-352-354-370-450-454-472-200600- ...C-MAN AND BUOY OBSERVATIONS... STATION/POSITION TIME TEMP WIND PRES WAVE SWELL AIR SEA DIR/SP/G HT/PER HT/PER/DIR (UTC) (F) (DEG/KT/KT) (MB) (FT/S) (FT/S/D) BUOY 41004 0450 80 82 220/ 6/ 8 1014.4F 4/11 3/ 80/11 BUOY 41008 0350 80 80 170/ 10/ 12 1015.2 2/11 2/ 60/11 FOLLY BEACH CMAN 0500 78 230/ 6/ 7 1015.4F CAPERS NEARSHORE 0408 77 80 240/ 8/ 12 1014.7F FRIPP NEARSHORE 0408 79 210/ 6/ 8 1021.8R STATION/POSITION TIME TEMP WIND PRES WAVE SWELL AIR SEA DIR/SP/G HT/PER HT/PER/DIR (UTC) (F) (DEG/KT/KT) (MB) (FT/S) (FT/S/D) 5E ST. MARYS GA 0430 81 N/A 3/12 2/ 80/12 FRYING PAN BUOY 0450 80 82 250/ 10/ 12 1014.0F 3/ 9 3/ 90/ 9 BUOY 41025 0450 75 74 290/ 12/ 14 1012.4S 7/11 7/ 70/11 CAPE LOOKOUT NC 0500 75 280/ 6/ 6 1013.1F BUOY 41002 0450 79 79 260/ 6/ 10 1014.8F 8/11 8/ 30/11 BUOY 41010 0450 84 50/ 2/ 4 1015.4F 6/13 7/13 ST AUGUSTINE FL 0500 81 82 140/ 8/ 8 1016.0F $$

USA.gov is the U.S. government's official web portal to all federal, state and local government web resources and services.